owner,sensor,date,latitude,longitude,air_temperature,qcFlag 
COMPS,ioos:station:USF.COMPS:NFB:1,2009-02-01T00:00:00Z,25.0840,-81.0960,15.28,1111122 
COMPS,ioos:station:USF.COMPS:NFB:1,2009-02-01T00:06:00Z,25.0840,-81.0960,15.27,1111122 
COMPS,ioos:station:USF.COMPS:NFB:1,2009-02-01T00:12:00Z,25.0840,-81.0960,15.2,1111122 
COMPS,ioos:station:USF.COMPS:NFB:1,2009-02-01T00:18:00Z,25.0840,-81.0960,15.1,1111122 
COMPS,ioos:station:USF.COMPS:NFB:1,2009-02-01T00:24:00Z,25.0840,-81.0960,15.03,1111122 
COMPS,ioos:station:USF.COMPS:NFB:1,2009-02-01T00:30:00Z,25.0840,-81.0960,14.9,1111122 
COMPS,ioos:station:USF.COMPS:NFB:1,2009-02-01T00:36:00Z,25.0840,-81.0960,14.98,1111122 
COMPS,ioos:station:USF.COMPS:NFB:1,2009-02-01T00:42:00Z,25.0840,-81.0960,14.92,1111122 
COMPS,ioos:station:USF.COMPS:NFB:1,2009-02-01T00:48:00Z,25.0840,-81.0960,14.91,1111122 
COMPS,ioos:station:USF.COMPS:NFB:1,2009-02-01T00:54:00Z,25.0840,-81.0960,14.84,1111122 
COMPS,ioos:station:USF.COMPS:NFB:1,2009-02-01T01:00:00Z,25.0840,-81.0960,14.73,1111122 
COMPS,ioos:station:USF.COMPS:NFB:1,2009-02-01T01:06:00Z,25.0840,-81.0960,14.6,1111122 
COMPS,ioos:station:USF.COMPS:NFB:1,2009-02-01T01:12:00Z,25.0840,-81.0960,14.51,1111122 
COMPS,ioos:station:USF.COMPS:NFB:1,2009-02-01T01:18:00Z,25.0840,-81.0960,14.47,1111122 
COMPS,ioos:station:USF.COMPS:NFB:1,2009-02-01T01:24:00Z,25.0840,-81.0960,14.45,1111122 
COMPS,ioos:station:USF.COMPS:NFB:1,2009-02-01T01:30:00Z,25.0840,-81.0960,14.35,1111122 
COMPS,ioos:station:USF.COMPS:NFB:1,2009-02-01T01:36:00Z,25.0840,-81.0960,14.39,1111122 
COMPS,ioos:station:USF.COMPS:NFB:1,2009-02-01T01:42:00Z,25.0840,-81.0960,14.24,1111122 
COMPS,ioos:station:USF.COMPS:NFB:1,2009-02-01T01:48:00Z,25.0840,-81.0960,14.09,1111122 
COMPS,ioos:station:USF.COMPS:NFB:1,2009-02-01T01:54:00Z,25.0840,-81.0960,14.05,1111122 
COMPS,ioos:station:USF.COMPS:NFB:1,2009-02-01T02:00:00Z,25.0840,-81.0960,13.94,1111122 
COMPS,ioos:station:USF.COMPS:NFB:1,2009-02-01T02:06:00Z,25.0840,-81.0960,13.87,1111122 
COMPS,ioos:station:USF.COMPS:NFB:1,2009-02-01T02:12:00Z,25.0840,-81.0960,13.85,1111122 
COMPS,ioos:station:USF.COMPS:NFB:1,2009-02-01T02:18:00Z,25.0840,-81.0960,13.99,1111122 
COMPS,ioos:station:USF.COMPS:NFB:1,2009-02-01T02:24:00Z,25.0840,-81.0960,13.78,1111122 
COMPS,ioos:station:USF.COMPS:NFB:1,2009-02-01T02:30:00Z,25.0840,-81.0960,13.73,1111122 
COMPS,ioos:station:USF.COMPS:NFB:1,2009-02-01T02:36:00Z,25.0840,-81.0960,13.74,1111122 
COMPS,ioos:station:USF.COMPS:NFB:1,2009-02-01T02:42:00Z,25.0840,-81.0960,13.58,1111122 
COMPS,ioos:station:USF.COMPS:NFB:1,2009-02-01T02:48:00Z,25.0840,-81.0960,13.51,1111122 
COMPS,ioos:station:USF.COMPS:NFB:1,2009-02-01T02:54:00Z,25.0840,-81.0960,13.44,1111122 
COMPS,ioos:station:USF.COMPS:NFB:1,2009-02-01T03:00:00Z,25.0840,-81.0960,13.44,1111122 
COMPS,ioos:station:USF.COMPS:NFB:1,2009-02-01T03:06:00Z,25.0840,-81.0960,13.3,1111122 
COMPS,ioos:station:USF.COMPS:NFB:1,2009-02-01T03:12:00Z,25.0840,-81.0960,13.21,1111122 
COMPS,ioos:station:USF.COMPS:NFB:1,2009-02-01T03:18:00Z,25.0840,-81.0960,13.08,1111122 
COMPS,ioos:station:USF.COMPS:NFB:1,2009-02-01T03:24:00Z,25.0840,-81.0960,12.99,1111122 
COMPS,ioos:station:USF.COMPS:NFB:1,2009-02-01T03:30:00Z,25.0840,-81.0960,12.93,1111122 
COMPS,ioos:station:USF.COMPS:NFB:1,2009-02-01T03:36:00Z,25.0840,-81.0960,13.02,1111122 
COMPS,ioos:station:USF.COMPS:NFB:1,2009-02-01T03:42:00Z,25.0840,-81.0960,12.92,1111122 
COMPS,ioos:station:USF.COMPS:NFB:1,2009-02-01T03:48:00Z,25.0840,-81.0960,12.83,1111122 
COMPS,ioos:station:USF.COMPS:NFB:1,2009-02-01T03:54:00Z,25.0840,-81.0960,12.79,1111122 
COMPS,ioos:station:USF.COMPS:NFB:1,2009-02-01T04:00:00Z,25.0840,-81.0960,12.66,1111122 
COMPS,ioos:station:USF.COMPS:NFB:1,2009-02-01T04:06:00Z,25.0840,-81.0960,12.66,1111122 
COMPS,ioos:station:USF.COMPS:NFB:1,2009-02-01T04:12:00Z,25.0840,-81.0960,12.65,1111122 
COMPS,ioos:station:USF.COMPS:NFB:1,2009-02-01T04:18:00Z,25.0840,-81.0960,12.66,1111122 
COMPS,ioos:station:USF.COMPS:NFB:1,2009-02-01T04:24:00Z,25.0840,-81.0960,12.66,1111122 
COMPS,ioos:station:USF.COMPS:NFB:1,2009-02-01T04:30:00Z,25.0840,-81.0960,12.55,1111122 
COMPS,ioos:station:USF.COMPS:NFB:1,2009-02-01T04:36:00Z,25.0840,-81.0960,12.66,1111122 
COMPS,ioos:station:USF.COMPS:NFB:1,2009-02-01T04:42:00Z,25.0840,-81.0960,12.7,1111122 
COMPS,ioos:station:USF.COMPS:NFB:1,2009-02-01T04:48:00Z,25.0840,-81.0960,12.66,1111122 
COMPS,ioos:station:USF.COMPS:NFB:1,2009-02-01T04:54:00Z,25.0840,-81.0960,12.7,1111122 
COMPS,ioos:station:USF.COMPS:NFB:1,2009-02-01T05:00:00Z,25.0840,-81.0960,12.58,1111122 
COMPS,ioos:station:USF.COMPS:NFB:1,2009-02-01T05:06:00Z,25.0840,-81.0960,12.62,1111122 
COMPS,ioos:station:USF.COMPS:NFB:1,2009-02-01T05:12:00Z,25.0840,-81.0960,12.56,1111122 
COMPS,ioos:station:USF.COMPS:NFB:1,2009-02-01T05:18:00Z,25.0840,-81.0960,12.5,1111122 
COMPS,ioos:station:USF.COMPS:NFB:1,2009-02-01T05:24:00Z,25.0840,-81.0960,12.65,1111122 
COMPS,ioos:station:USF.COMPS:NFB:1,2009-02-01T05:30:00Z,25.0840,-81.0960,12.47,1111122 
COMPS,ioos:station:USF.COMPS:NFB:1,2009-02-01T05:36:00Z,25.0840,-81.0960,12.46,1111122 
COMPS,ioos:station:USF.COMPS:NFB:1,2009-02-01T05:42:00Z,25.0840,-81.0960,12.5,1111122 
COMPS,ioos:station:USF.COMPS:NFB:1,2009-02-01T05:48:00Z,25.0840,-81.0960,12.35,1111122 
COMPS,ioos:station:USF.COMPS:NFB:1,2009-02-01T05:54:00Z,25.0840,-81.0960,12.45,1111122 
COMPS,ioos:station:USF.COMPS:NFB:1,2009-02-01T06:00:00Z,25.0840,-81.0960,12.34,1111122 
COMPS,ioos:station:USF.COMPS:NFB:1,2009-02-01T06:06:00Z,25.0840,-81.0960,12.37,1111122 
COMPS,ioos:station:USF.COMPS:NFB:1,2009-02-01T06:12:00Z,25.0840,-81.0960,12.24,1111122 
COMPS,ioos:station:USF.COMPS:NFB:1,2009-02-01T06:18:00Z,25.0840,-81.0960,12.29,1111122 
COMPS,ioos:station:USF.COMPS:NFB:1,2009-02-01T06:24:00Z,25.0840,-81.0960,12.41,1111122 
COMPS,ioos:station:USF.COMPS:NFB:1,2009-02-01T06:30:00Z,25.0840,-81.0960,12.3,1111122 
COMPS,ioos:station:USF.COMPS:NFB:1,2009-02-01T06:36:00Z,25.0840,-81.0960,12.35,1111122 
COMPS,ioos:station:USF.COMPS:NFB:1,2009-02-01T06:42:00Z,25.0840,-81.0960,12.31,1111122 
COMPS,ioos:station:USF.COMPS:NFB:1,2009-02-01T06:48:00Z,25.0840,-81.0960,12.24,1111122 
COMPS,ioos:station:USF.COMPS:NFB:1,2009-02-01T06:54:00Z,25.0840,-81.0960,12.34,1111122 
COMPS,ioos:station:USF.COMPS:NFB:1,2009-02-01T07:00:00Z,25.0840,-81.0960,12.24,1111122 
COMPS,ioos:station:USF.COMPS:NFB:1,2009-02-01T07:06:00Z,25.0840,-81.0960,12.35,1111122 
COMPS,ioos:station:USF.COMPS:NFB:1,2009-02-01T07:12:00Z,25.0840,-81.0960,12.28,1111122 
COMPS,ioos:station:USF.COMPS:NFB:1,2009-02-01T07:18:00Z,25.0840,-81.0960,12.25,1111122 
COMPS,ioos:station:USF.COMPS:NFB:1,2009-02-01T07:24:00Z,25.0840,-81.0960,12.19,1111122 
COMPS,ioos:station:USF.COMPS:NFB:1,2009-02-01T07:30:00Z,25.0840,-81.0960,12.23,1111122 
COMPS,ioos:station:USF.COMPS:NFB:1,2009-02-01T07:36:00Z,25.0840,-81.0960,12.26,1111122 
COMPS,ioos:station:USF.COMPS:NFB:1,2009-02-01T07:42:00Z,25.0840,-81.0960,12.33,1111122 
COMPS,ioos:station:USF.COMPS:NFB:1,2009-02-01T07:48:00Z,25.0840,-81.0960,12.26,1111122 
COMPS,ioos:station:USF.COMPS:NFB:1,2009-02-01T07:54:00Z,25.0840,-81.0960,12.24,1111122 
COMPS,ioos:station:USF.COMPS:NFB:1,2009-02-01T08:00:00Z,25.0840,-81.0960,12.29,1111122 
COMPS,ioos:station:USF.COMPS:NFB:1,2009-02-01T08:06:00Z,25.0840,-81.0960,12.21,1111122 
COMPS,ioos:station:USF.COMPS:NFB:1,2009-02-01T08:12:00Z,25.0840,-81.0960,12.19,1111122 
COMPS,ioos:station:USF.COMPS:NFB:1,2009-02-01T08:18:00Z,25.0840,-81.0960,12.3,1111122 
COMPS,ioos:station:USF.COMPS:NFB:1,2009-02-01T08:24:00Z,25.0840,-81.0960,12.2,1111122 
COMPS,ioos:station:USF.COMPS:NFB:1,2009-02-01T08:30:00Z,25.0840,-81.0960,12.15,1111122 
COMPS,ioos:station:USF.COMPS:NFB:1,2009-02-01T08:36:00Z,25.0840,-81.0960,12.21,1111122 
COMPS,ioos:station:USF.COMPS:NFB:1,2009-02-01T08:42:00Z,25.0840,-81.0960,12.18,1111122 
COMPS,ioos:station:USF.COMPS:NFB:1,2009-02-01T08:48:00Z,25.0840,-81.0960,12.24,1111122 
COMPS,ioos:station:USF.COMPS:NFB:1,2009-02-01T08:54:00Z,25.0840,-81.0960,12.2,1111122 
COMPS,ioos:station:USF.COMPS:NFB:1,2009-02-01T09:00:00Z,25.0840,-81.0960,12.17,1111122 
COMPS,ioos:station:USF.COMPS:NFB:1,2009-02-01T09:06:00Z,25.0840,-81.0960,12.22,1111122 
COMPS,ioos:station:USF.COMPS:NFB:1,2009-02-01T09:12:00Z,25.0840,-81.0960,12.24,1111122 
COMPS,ioos:station:USF.COMPS:NFB:1,2009-02-01T09:18:00Z,25.0840,-81.0960,12.11,1111122 
COMPS,ioos:station:USF.COMPS:NFB:1,2009-02-01T09:24:00Z,25.0840,-81.0960,12.1,1111122 
COMPS,ioos:station:USF.COMPS:NFB:1,2009-02-01T09:30:00Z,25.0840,-81.0960,11.92,1111122 
COMPS,ioos:station:USF.COMPS:NFB:1,2009-02-01T09:36:00Z,25.0840,-81.0960,11.98,1111122 
COMPS,ioos:station:USF.COMPS:NFB:1,2009-02-01T09:42:00Z,25.0840,-81.0960,12.09,1111122 
COMPS,ioos:station:USF.COMPS:NFB:1,2009-02-01T09:48:00Z,25.0840,-81.0960,12.15,1111122 
COMPS,ioos:station:USF.COMPS:NFB:1,2009-02-01T09:54:00Z,25.0840,-81.0960,12.03,1111122 
COMPS,ioos:station:USF.COMPS:NFB:1,2009-02-01T10:00:00Z,25.0840,-81.0960,12.02,1111122 
COMPS,ioos:station:USF.COMPS:NFB:1,2009-02-01T10:06:00Z,25.0840,-81.0960,11.9,1111122 
COMPS,ioos:station:USF.COMPS:NFB:1,2009-02-01T10:12:00Z,25.0840,-81.0960,11.97,1111122 
COMPS,ioos:station:USF.COMPS:NFB:1,2009-02-01T10:18:00Z,25.0840,-81.0960,11.94,1111122 
COMPS,ioos:station:USF.COMPS:NFB:1,2009-02-01T10:24:00Z,25.0840,-81.0960,12.01,1111122 
COMPS,ioos:station:USF.COMPS:NFB:1,2009-02-01T10:30:00Z,25.0840,-81.0960,11.8,1111122 
COMPS,ioos:station:USF.COMPS:NFB:1,2009-02-01T10:36:00Z,25.0840,-81.0960,11.83,1111122 
COMPS,ioos:station:USF.COMPS:NFB:1,2009-02-01T10:42:00Z,25.0840,-81.0960,11.86,1111122 
COMPS,ioos:station:USF.COMPS:NFB:1,2009-02-01T10:48:00Z,25.0840,-81.0960,11.79,1111122 
COMPS,ioos:station:USF.COMPS:NFB:1,2009-02-01T10:54:00Z,25.0840,-81.0960,11.74,1111122 
COMPS,ioos:station:USF.COMPS:NFB:1,2009-02-01T11:00:00Z,25.0840,-81.0960,11.8,1111122 
COMPS,ioos:station:USF.COMPS:NFB:1,2009-02-01T11:06:00Z,25.0840,-81.0960,11.78,1111122 
COMPS,ioos:station:USF.COMPS:NFB:1,2009-02-01T11:12:00Z,25.0840,-81.0960,11.79,1111122 
COMPS,ioos:station:USF.COMPS:NFB:1,2009-02-01T11:18:00Z,25.0840,-81.0960,11.8,1111122 
COMPS,ioos:station:USF.COMPS:NFB:1,2009-02-01T11:24:00Z,25.0840,-81.0960,11.85,1111122 
COMPS,ioos:station:USF.COMPS:NFB:1,2009-02-01T11:30:00Z,25.0840,-81.0960,11.88,1111122 
COMPS,ioos:station:USF.COMPS:NFB:1,2009-02-01T11:36:00Z,25.0840,-81.0960,11.96,1111122 
COMPS,ioos:station:USF.COMPS:NFB:1,2009-02-01T11:42:00Z,25.0840,-81.0960,11.89,1111122 
COMPS,ioos:station:USF.COMPS:NFB:1,2009-02-01T11:48:00Z,25.0840,-81.0960,11.94,1111122 
COMPS,ioos:station:USF.COMPS:NFB:1,2009-02-01T11:54:00Z,25.0840,-81.0960,11.93,1111122 
COMPS,ioos:station:USF.COMPS:NFB:1,2009-02-01T12:00:00Z,25.0840,-81.0960,11.99,1111122 
COMPS,ioos:station:USF.COMPS:NFB:1,2009-02-01T12:06:00Z,25.0840,-81.0960,11.77,1111122 
COMPS,ioos:station:USF.COMPS:NFB:1,2009-02-01T12:12:00Z,25.0840,-81.0960,11.77,1111122 
COMPS,ioos:station:USF.COMPS:NFB:1,2009-02-01T12:18:00Z,25.0840,-81.0960,11.86,1111122 
COMPS,ioos:station:USF.COMPS:NFB:1,2009-02-01T12:24:00Z,25.0840,-81.0960,11.79,1111122 
COMPS,ioos:station:USF.COMPS:NFB:1,2009-02-01T12:30:00Z,25.0840,-81.0960,11.84,1111122 
COMPS,ioos:station:USF.COMPS:NFB:1,2009-02-01T12:36:00Z,25.0840,-81.0960,11.8,1111122 
COMPS,ioos:station:USF.COMPS:NFB:1,2009-02-01T12:42:00Z,25.0840,-81.0960,11.96,1111122 
COMPS,ioos:station:USF.COMPS:NFB:1,2009-02-01T12:48:00Z,25.0840,-81.0960,11.83,1111122 
COMPS,ioos:station:USF.COMPS:NFB:1,2009-02-01T12:54:00Z,25.0840,-81.0960,11.8,1111122 
COMPS,ioos:station:USF.COMPS:NFB:1,2009-02-01T13:00:00Z,25.0840,-81.0960,11.87,1111122 
COMPS,ioos:station:USF.COMPS:NFB:1,2009-02-01T13:06:00Z,25.0840,-81.0960,11.89,1111122 
COMPS,ioos:station:USF.COMPS:NFB:1,2009-02-01T13:12:00Z,25.0840,-81.0960,12.09,1111122 
COMPS,ioos:station:USF.COMPS:NFB:1,2009-02-01T13:18:00Z,25.0840,-81.0960,12.39,1111122 
COMPS,ioos:station:USF.COMPS:NFB:1,2009-02-01T13:24:00Z,25.0840,-81.0960,12.59,1111122 
COMPS,ioos:station:USF.COMPS:NFB:1,2009-02-01T13:30:00Z,25.0840,-81.0960,12.88,1111122 
COMPS,ioos:station:USF.COMPS:NFB:1,2009-02-01T13:36:00Z,25.0840,-81.0960,13.08,1111122 
COMPS,ioos:station:USF.COMPS:NFB:1,2009-02-01T13:42:00Z,25.0840,-81.0960,13.25,1111122 
COMPS,ioos:station:USF.COMPS:NFB:1,2009-02-01T13:48:00Z,25.0840,-81.0960,13.43,1111122 
COMPS,ioos:station:USF.COMPS:NFB:1,2009-02-01T13:54:00Z,25.0840,-81.0960,13.62,1111122 
COMPS,ioos:station:USF.COMPS:NFB:1,2009-02-01T14:00:00Z,25.0840,-81.0960,13.83,1111122 
COMPS,ioos:station:USF.COMPS:NFB:1,2009-02-01T14:06:00Z,25.0840,-81.0960,14.13,1111122 
COMPS,ioos:station:USF.COMPS:NFB:1,2009-02-01T14:12:00Z,25.0840,-81.0960,14.3,1111122 
COMPS,ioos:station:USF.COMPS:NFB:1,2009-02-01T14:18:00Z,25.0840,-81.0960,14.56,1111122 
COMPS,ioos:station:USF.COMPS:NFB:1,2009-02-01T14:24:00Z,25.0840,-81.0960,14.83,1111122 
COMPS,ioos:station:USF.COMPS:NFB:1,2009-02-01T14:30:00Z,25.0840,-81.0960,14.85,1111122 
COMPS,ioos:station:USF.COMPS:NFB:1,2009-02-01T14:36:00Z,25.0840,-81.0960,15.12,1111122 
COMPS,ioos:station:USF.COMPS:NFB:1,2009-02-01T14:42:00Z,25.0840,-81.0960,15.28,1111122 
COMPS,ioos:station:USF.COMPS:NFB:1,2009-02-01T14:48:00Z,25.0840,-81.0960,15.48,1111122 
COMPS,ioos:station:USF.COMPS:NFB:1,2009-02-01T14:54:00Z,25.0840,-81.0960,15.76,1111122 
COMPS,ioos:station:USF.COMPS:NFB:1,2009-02-01T15:00:00Z,25.0840,-81.0960,15.95,1111122 
COMPS,ioos:station:USF.COMPS:NFB:1,2009-02-01T15:06:00Z,25.0840,-81.0960,16.26,1111122 
COMPS,ioos:station:USF.COMPS:NFB:1,2009-02-01T15:12:00Z,25.0840,-81.0960,16.52,1111122 
COMPS,ioos:station:USF.COMPS:NFB:1,2009-02-01T15:18:00Z,25.0840,-81.0960,16.75,1111122 
COMPS,ioos:station:USF.COMPS:NFB:1,2009-02-01T15:24:00Z,25.0840,-81.0960,16.95,1111122 
COMPS,ioos:station:USF.COMPS:NFB:1,2009-02-01T15:30:00Z,25.0840,-81.0960,17.01,1111122 
COMPS,ioos:station:USF.COMPS:NFB:1,2009-02-01T15:36:00Z,25.0840,-81.0960,17.33,1111122 
COMPS,ioos:station:USF.COMPS:NFB:1,2009-02-01T15:42:00Z,25.0840,-81.0960,17.34,1111122 
COMPS,ioos:station:USF.COMPS:NFB:1,2009-02-01T15:48:00Z,25.0840,-81.0960,17.31,1111122 
COMPS,ioos:station:USF.COMPS:NFB:1,2009-02-01T15:54:00Z,25.0840,-81.0960,17.41,1111122 
COMPS,ioos:station:USF.COMPS:NFB:1,2009-02-01T16:00:00Z,25.0840,-81.0960,17.48,1111122 
COMPS,ioos:station:USF.COMPS:NFB:1,2009-02-01T16:06:00Z,25.0840,-81.0960,17.54,1111122 
COMPS,ioos:station:USF.COMPS:NFB:1,2009-02-01T16:12:00Z,25.0840,-81.0960,17.54,1111122 
COMPS,ioos:station:USF.COMPS:NFB:1,2009-02-01T16:18:00Z,25.0840,-81.0960,17.68,1111122 
COMPS,ioos:station:USF.COMPS:NFB:1,2009-02-01T16:24:00Z,25.0840,-81.0960,17.75,1111122 
COMPS,ioos:station:USF.COMPS:NFB:1,2009-02-01T16:30:00Z,25.0840,-81.0960,17.74,1111122 
COMPS,ioos:station:USF.COMPS:NFB:1,2009-02-01T16:36:00Z,25.0840,-81.0960,17.93,1111122 
COMPS,ioos:station:USF.COMPS:NFB:1,2009-02-01T16:42:00Z,25.0840,-81.0960,18.03,1111122 
COMPS,ioos:station:USF.COMPS:NFB:1,2009-02-01T16:48:00Z,25.0840,-81.0960,18.13,1111122 
COMPS,ioos:station:USF.COMPS:NFB:1,2009-02-01T16:54:00Z,25.0840,-81.0960,18.29,1111122 
COMPS,ioos:station:USF.COMPS:NFB:1,2009-02-01T17:00:00Z,25.0840,-81.0960,18.33,1111122 
COMPS,ioos:station:USF.COMPS:NFB:1,2009-02-01T17:06:00Z,25.0840,-81.0960,18.26,1111122 
COMPS,ioos:station:USF.COMPS:NFB:1,2009-02-01T17:12:00Z,25.0840,-81.0960,18.25,1111122 
COMPS,ioos:station:USF.COMPS:NFB:1,2009-02-01T17:18:00Z,25.0840,-81.0960,18.29,1111122 
COMPS,ioos:station:USF.COMPS:NFB:1,2009-02-01T17:24:00Z,25.0840,-81.0960,18.28,1111122 
COMPS,ioos:station:USF.COMPS:NFB:1,2009-02-01T17:30:00Z,25.0840,-81.0960,18.34,1111122 
COMPS,ioos:station:USF.COMPS:NFB:1,2009-02-01T17:36:00Z,25.0840,-81.0960,18.52,1111122 
COMPS,ioos:station:USF.COMPS:NFB:1,2009-02-01T17:42:00Z,25.0840,-81.0960,18.68,1111122 
COMPS,ioos:station:USF.COMPS:NFB:1,2009-02-01T17:48:00Z,25.0840,-81.0960,18.71,1111122 
COMPS,ioos:station:USF.COMPS:NFB:1,2009-02-01T17:54:00Z,25.0840,-81.0960,18.8,1111122 
COMPS,ioos:station:USF.COMPS:NFB:1,2009-02-01T18:00:00Z,25.0840,-81.0960,18.83,1111122 
COMPS,ioos:station:USF.COMPS:NFB:1,2009-02-01T18:06:00Z,25.0840,-81.0960,18.93,1111122 
COMPS,ioos:station:USF.COMPS:NFB:1,2009-02-01T18:12:00Z,25.0840,-81.0960,18.98,1111122 
COMPS,ioos:station:USF.COMPS:NFB:1,2009-02-01T18:18:00Z,25.0840,-81.0960,19.07,1111122 
COMPS,ioos:station:USF.COMPS:NFB:1,2009-02-01T18:24:00Z,25.0840,-81.0960,19.13,1111122 
COMPS,ioos:station:USF.COMPS:NFB:1,2009-02-01T18:30:00Z,25.0840,-81.0960,19.14,1111122 
COMPS,ioos:station:USF.COMPS:NFB:1,2009-02-01T18:36:00Z,25.0840,-81.0960,19.35,1111122 
COMPS,ioos:station:USF.COMPS:NFB:1,2009-02-01T18:42:00Z,25.0840,-81.0960,19.47,1111122 
COMPS,ioos:station:USF.COMPS:NFB:1,2009-02-01T18:48:00Z,25.0840,-81.0960,19.65,1111122 
COMPS,ioos:station:USF.COMPS:NFB:1,2009-02-01T18:54:00Z,25.0840,-81.0960,19.61,1111122 
COMPS,ioos:station:USF.COMPS:NFB:1,2009-02-01T19:00:00Z,25.0840,-81.0960,19.64,1111122 
COMPS,ioos:station:USF.COMPS:NFB:1,2009-02-01T19:06:00Z,25.0840,-81.0960,19.68,1111122 
COMPS,ioos:station:USF.COMPS:NFB:1,2009-02-01T19:12:00Z,25.0840,-81.0960,19.78,1111122 
COMPS,ioos:station:USF.COMPS:NFB:1,2009-02-01T19:18:00Z,25.0840,-81.0960,19.81,1111122 
COMPS,ioos:station:USF.COMPS:NFB:1,2009-02-01T19:24:00Z,25.0840,-81.0960,19.77,1111122 
COMPS,ioos:station:USF.COMPS:NFB:1,2009-02-01T19:30:00Z,25.0840,-81.0960,19.63,1111122 
COMPS,ioos:station:USF.COMPS:NFB:1,2009-02-01T19:36:00Z,25.0840,-81.0960,19.81,1111122 
COMPS,ioos:station:USF.COMPS:NFB:1,2009-02-01T19:42:00Z,25.0840,-81.0960,19.88,1111122 
COMPS,ioos:station:USF.COMPS:NFB:1,2009-02-01T19:48:00Z,25.0840,-81.0960,19.84,1111122 
COMPS,ioos:station:USF.COMPS:NFB:1,2009-02-01T19:54:00Z,25.0840,-81.0960,19.79,1111122 
COMPS,ioos:station:USF.COMPS:NFB:1,2009-02-01T20:00:00Z,25.0840,-81.0960,19.78,1111122 
COMPS,ioos:station:USF.COMPS:NFB:1,2009-02-01T20:06:00Z,25.0840,-81.0960,19.78,1111122 
COMPS,ioos:station:USF.COMPS:NFB:1,2009-02-01T20:12:00Z,25.0840,-81.0960,19.82,1111122 
COMPS,ioos:station:USF.COMPS:NFB:1,2009-02-01T20:18:00Z,25.0840,-81.0960,19.96,1111122 
COMPS,ioos:station:USF.COMPS:NFB:1,2009-02-01T20:24:00Z,25.0840,-81.0960,20.0,1111122 
COMPS,ioos:station:USF.COMPS:NFB:1,2009-02-01T20:30:00Z,25.0840,-81.0960,19.85,1111122 
COMPS,ioos:station:USF.COMPS:NFB:1,2009-02-01T20:36:00Z,25.0840,-81.0960,19.91,1111122 
COMPS,ioos:station:USF.COMPS:NFB:1,2009-02-01T20:42:00Z,25.0840,-81.0960,19.97,1111122 
COMPS,ioos:station:USF.COMPS:NFB:1,2009-02-01T20:48:00Z,25.0840,-81.0960,19.98,1111122 
COMPS,ioos:station:USF.COMPS:NFB:1,2009-02-01T20:54:00Z,25.0840,-81.0960,19.94,1111122 
COMPS,ioos:station:USF.COMPS:NFB:1,2009-02-01T21:00:00Z,25.0840,-81.0960,20.14,1111122 
COMPS,ioos:station:USF.COMPS:NFB:1,2009-02-01T21:06:00Z,25.0840,-81.0960,20.13,1111122 
COMPS,ioos:station:USF.COMPS:NFB:1,2009-02-01T21:12:00Z,25.0840,-81.0960,20.13,1111122 
COMPS,ioos:station:USF.COMPS:NFB:1,2009-02-01T21:18:00Z,25.0840,-81.0960,20.07,1111122 
COMPS,ioos:station:USF.COMPS:NFB:1,2009-02-01T21:24:00Z,25.0840,-81.0960,19.97,1111122 
COMPS,ioos:station:USF.COMPS:NFB:1,2009-02-01T21:30:00Z,25.0840,-81.0960,19.85,1111122 
COMPS,ioos:station:USF.COMPS:NFB:1,2009-02-01T21:36:00Z,25.0840,-81.0960,19.91,1111122 
COMPS,ioos:station:USF.COMPS:NFB:1,2009-02-01T21:42:00Z,25.0840,-81.0960,19.81,1111122 
COMPS,ioos:station:USF.COMPS:NFB:1,2009-02-01T21:48:00Z,25.0840,-81.0960,19.78,1111122 
COMPS,ioos:station:USF.COMPS:NFB:1,2009-02-01T21:54:00Z,25.0840,-81.0960,19.69,1111122 
COMPS,ioos:station:USF.COMPS:NFB:1,2009-02-01T22:00:00Z,25.0840,-81.0960,19.66,1111122 
COMPS,ioos:station:USF.COMPS:NFB:1,2009-02-01T22:06:00Z,25.0840,-81.0960,19.64,1111122 
COMPS,ioos:station:USF.COMPS:NFB:1,2009-02-01T22:12:00Z,25.0840,-81.0960,19.64,1111122 
COMPS,ioos:station:USF.COMPS:NFB:1,2009-02-01T22:18:00Z,25.0840,-81.0960,19.64,1111122 
COMPS,ioos:station:USF.COMPS:NFB:1,2009-02-01T22:24:00Z,25.0840,-81.0960,19.56,1111122 
COMPS,ioos:station:USF.COMPS:NFB:1,2009-02-01T22:30:00Z,25.0840,-81.0960,19.46,1111122 
COMPS,ioos:station:USF.COMPS:NFB:1,2009-02-01T22:36:00Z,25.0840,-81.0960,19.51,1111122 
COMPS,ioos:station:USF.COMPS:NFB:1,2009-02-01T22:42:00Z,25.0840,-81.0960,19.51,1111122 
COMPS,ioos:station:USF.COMPS:NFB:1,2009-02-01T22:48:00Z,25.0840,-81.0960,19.43,1111122 
COMPS,ioos:station:USF.COMPS:NFB:1,2009-02-01T22:54:00Z,25.0840,-81.0960,19.37,1111122 
COMPS,ioos:station:USF.COMPS:NFB:1,2009-02-01T23:00:00Z,25.0840,-81.0960,19.37,1111122 
COMPS,ioos:station:USF.COMPS:NFB:1,2009-02-01T23:06:00Z,25.0840,-81.0960,19.34,1111122 
COMPS,ioos:station:USF.COMPS:NFB:1,2009-02-01T23:12:00Z,25.0840,-81.0960,19.34,1111122 
COMPS,ioos:station:USF.COMPS:NFB:1,2009-02-01T23:18:00Z,25.0840,-81.0960,19.24,1111122 
COMPS,ioos:station:USF.COMPS:NFB:1,2009-02-01T23:24:00Z,25.0840,-81.0960,19.24,1111122 
COMPS,ioos:station:USF.COMPS:NFB:1,2009-02-01T23:30:00Z,25.0840,-81.0960,19.1,1111122 
COMPS,ioos:station:USF.COMPS:NFB:1,2009-02-01T23:36:00Z,25.0840,-81.0960,19.11,1111122 
COMPS,ioos:station:USF.COMPS:NFB:1,2009-02-01T23:42:00Z,25.0840,-81.0960,19.1,1111122 
COMPS,ioos:station:USF.COMPS:NFB:1,2009-02-01T23:48:00Z,25.0840,-81.0960,19.1,1111122 
COMPS,ioos:station:USF.COMPS:NFB:1,2009-02-01T23:54:00Z,25.0840,-81.0960,19.1,1111122 
COMPS,ioos:station:USF.COMPS:NFB:1,2009-02-02T00:00:00Z,25.0840,-81.0960,19.1,1111122 
COMPS,ioos:station:USF.COMPS:NFB:1,2009-02-02T00:06:00Z,25.0840,-81.0960,19.07,1111122 
COMPS,ioos:station:USF.COMPS:NFB:1,2009-02-02T00:12:00Z,25.0840,-81.0960,19.08,1111122 
COMPS,ioos:station:USF.COMPS:NFB:1,2009-02-02T00:18:00Z,25.0840,-81.0960,19.08,1111122 
COMPS,ioos:station:USF.COMPS:NFB:1,2009-02-02T00:24:00Z,25.0840,-81.0960,18.97,1111122 
COMPS,ioos:station:USF.COMPS:NFB:1,2009-02-02T00:30:00Z,25.0840,-81.0960,18.88,1111122 
COMPS,ioos:station:USF.COMPS:NFB:1,2009-02-02T00:36:00Z,25.0840,-81.0960,18.83,1111122 
COMPS,ioos:station:USF.COMPS:NFB:1,2009-02-02T00:42:00Z,25.0840,-81.0960,18.83,1111122 
COMPS,ioos:station:USF.COMPS:NFB:1,2009-02-02T00:48:00Z,25.0840,-81.0960,18.71,1111122 
COMPS,ioos:station:USF.COMPS:NFB:1,2009-02-02T00:54:00Z,25.0840,-81.0960,18.59,1111122 
COMPS,ioos:station:USF.COMPS:NFB:1,2009-02-02T01:00:00Z,25.0840,-81.0960,18.56,1111122 
COMPS,ioos:station:USF.COMPS:NFB:1,2009-02-02T01:06:00Z,25.0840,-81.0960,18.56,1111122 
COMPS,ioos:station:USF.COMPS:NFB:1,2009-02-02T01:12:00Z,25.0840,-81.0960,18.58,1111122 
COMPS,ioos:station:USF.COMPS:NFB:1,2009-02-02T01:18:00Z,25.0840,-81.0960,18.56,1111122 
COMPS,ioos:station:USF.COMPS:NFB:1,2009-02-02T01:24:00Z,25.0840,-81.0960,18.46,1111122 
COMPS,ioos:station:USF.COMPS:NFB:1,2009-02-02T01:30:00Z,25.0840,-81.0960,18.44,1111122 
COMPS,ioos:station:USF.COMPS:NFB:1,2009-02-02T01:36:00Z,25.0840,-81.0960,18.45,1111122 
COMPS,ioos:station:USF.COMPS:NFB:1,2009-02-02T01:42:00Z,25.0840,-81.0960,18.4,1111122 
COMPS,ioos:station:USF.COMPS:NFB:1,2009-02-02T01:48:00Z,25.0840,-81.0960,18.39,1111122 
COMPS,ioos:station:USF.COMPS:NFB:1,2009-02-02T01:54:00Z,25.0840,-81.0960,18.41,1111122 
COMPS,ioos:station:USF.COMPS:NFB:1,2009-02-02T02:00:00Z,25.0840,-81.0960,18.41,1111122 
COMPS,ioos:station:USF.COMPS:NFB:1,2009-02-02T02:06:00Z,25.0840,-81.0960,18.35,1111122 
COMPS,ioos:station:USF.COMPS:NFB:1,2009-02-02T02:12:00Z,25.0840,-81.0960,18.29,1111122 
COMPS,ioos:station:USF.COMPS:NFB:1,2009-02-02T02:18:00Z,25.0840,-81.0960,18.33,1111122 
COMPS,ioos:station:USF.COMPS:NFB:1,2009-02-02T02:24:00Z,25.0840,-81.0960,18.41,1111122 
COMPS,ioos:station:USF.COMPS:NFB:1,2009-02-02T02:30:00Z,25.0840,-81.0960,18.34,1111122 
COMPS,ioos:station:USF.COMPS:NFB:1,2009-02-02T02:36:00Z,25.0840,-81.0960,18.39,1111122 
COMPS,ioos:station:USF.COMPS:NFB:1,2009-02-02T02:42:00Z,25.0840,-81.0960,18.45,1111122 
COMPS,ioos:station:USF.COMPS:NFB:1,2009-02-02T02:48:00Z,25.0840,-81.0960,18.36,1111122 
COMPS,ioos:station:USF.COMPS:NFB:1,2009-02-02T02:54:00Z,25.0840,-81.0960,18.29,1111122 
COMPS,ioos:station:USF.COMPS:NFB:1,2009-02-02T03:00:00Z,25.0840,-81.0960,18.29,1111122 
COMPS,ioos:station:USF.COMPS:NFB:1,2009-02-02T03:06:00Z,25.0840,-81.0960,18.39,1111122 